����,���ϕ���(m/s),���ϕ���,�ő�u�ԕ���(m/s),�ő啗��������,�C��(��),���x(%),10���Ԉړ��ώZ�J��(mm),1���Ԉړ��ώZ�J��(mm),���J��(mm),�݌v�J��(mm),����(���ώZ)(MJ/m2),����(���ώZ)(min),���n�C��(hPa),�C�ʋC��(hPa)
2023-06-19T00:00:00+09:00,3,�k��,4.6,�k��,20.8,80.5,0,0,0,0,18.14,385,994.3,1007.8
2023-06-19T00:01:00+09:00,3,�k��,4.6,�k��,20.7,80.9,0,0,0,0,0,0,994.4,1007.9
2023-06-19T00:02:00+09:00,3,�k��,4.6,�k��,20.5,80.7,0,0,0,0,0,0,994.4,1007.9
2023-06-19T00:03:00+09:00,2.9,�k��,4.6,�k��,20.8,81.3,0,0,0,0,0,0,994.3,1007.8
2023-06-19T00:04:00+09:00,2.9,�k��,4.6,�k��,20.8,81.7,0,0,0,0,0,0,994.3,1007.8
2023-06-19T00:05:00+09:00,2.8,�k��,4.6,�k��,20.8,81.1,0,0,0,0,0,0,994.4,1007.9
2023-06-19T00:06:00+09:00,2.8,�k��,4.6,�k��,20.7,81.1,0,0,0,0,0,0,994.4,1007.9
2023-06-19T00:07:00+09:00,2.8,�k��,4.6,�k��,20.7,81.2,0,0,0,0,0,0,994.4,1007.9
2023-06-19T00:08:00+09:00,2.8,�k��,4.6,�k��,20.7,81.1,0,0,0,0,0,0,994.3,1007.8
2023-06-19T00:09:00+09:00,2.7,�k��,4.6,�k��,20.8,81.5,0,0,0,0,0,0,994.3,1007.8
2023-06-19T00:10:00+09:00,2.6,�k��,4.5,�k��,20.7,81.2,0,0,0,0,0,0,994.3,1007.8
2023-06-19T00:11:00+09:00,2.4,�k��,3.7,�k��,20.5,80.6,0,0,0,0,0,0,994.3,1007.8
2023-06-19T00:12:00+09:00,2.4,�k��,3.7,�k��,20.8,81.5,0,0,0,0,0,0,994.3,1007.8
2023-06-19T00:13:00+09:00,2.4,�k��,3.7,�k��,20.9,81.7,0,0,0,0,0,0,994.3,1007.8
2023-06-19T00:14:00+09:00,2.3,�k��,3.7,�k��,20.8,81.1,0,0,0,0,0,0,994.3,1007.8
2023-06-19T00:15:00+09:00,2.3,�k��,3.7,�k��,20.9,80.9,0,0,0,0,0,0,994.3,1007.8
2023-06-19T00:16:00+09:00,2.2,�k��,3.4,�k��,21,81,0,0,0,0,0,0,994.3,1007.8
2023-06-19T00:17:00+09:00,2.2,�k��,3.4,�k��,20.9,80.4,0,0,0,0,0,0,994.3,1007.8
2023-06-19T00:18:00+09:00,2.2,�k��,3.4,�k��,21,80.2,0,0,0,0,0,0,994.3,1007.8
2023-06-19T00:19:00+09:00,2.1,�k��,3.4,�k��,20.8,79.7,0,0,0,0,0,0,994.3,1007.8
2023-06-19T00:20:00+09:00,2.1,�k��,3.4,�k��,20.9,80.1,0,0,0,0,0,0,994.3,1007.8
2023-06-19T00:21:00+09:00,2.1,�k��,3.4,�k��,20.8,80.1,0,0,0,0,0,0,994.3,1007.8
2023-06-19T00:22:00+09:00,2,�k��,3.4,�k��,20.9,80.1,0,0,0,0,0,0,994.2,1007.7
2023-06-19T00:23:00+09:00,2,�k��,3.4,�k��,20.8,80,0,0,0,0,0,0,994.2,1007.7
2023-06-19T00:24:00+09:00,1.9,�k��,3.4,�k��,20.8,80.1,0,0,0,0,0,0,994.2,1007.7
2023-06-19T00:25:00+09:00,1.9,�k��,3,�k,20.8,79.9,0,0,0,0,0,0,994.3,1007.8
2023-06-19T00:26:00+09:00,1.9,�k�k��,3,�k,20.8,79.9,0,0,0,0,0,0,994.3,1007.8
2023-06-19T00:27:00+09:00,1.9,�k�k��,3,�k,20.7,80,0,0,0,0,0,0,994.3,1007.8
2023-06-19T00:28:00+09:00,1.8,�k�k��,2.7,�k��,20.9,80.4,0,0,0,0,0,0,994.3,1007.8
2023-06-19T00:29:00+09:00,1.9,�k�k��,2.7,�k��,20.8,80.3,0,0,0,0,0,0,994.2,1007.7
2023-06-19T00:30:00+09:00,1.9,�k�k��,2.7,�k��,20.8,80,0,0,0,0,0,0,994.2,1007.7
2023-06-19T00:31:00+09:00,1.9,�k�k��,2.7,�k��,20.7,80.2,0,0,0,0,0,0,994.2,1007.7
2023-06-19T00:32:00+09:00,1.9,�k�k��,2.8,�k�k��,20.5,79.9,0,0,0,0,0,0,994.2,1007.7
2023-06-19T00:33:00+09:00,1.9,�k�k��,2.8,�k�k��,20.6,80.2,0,0,0,0,0,0,994.2,1007.7
2023-06-19T00:34:00+09:00,1.9,�k�k��,2.8,�k�k��,20.6,80.5,0,0,0,0,0,0,994.1,1007.6
2023-06-19T00:35:00+09:00,1.9,�k�k��,2.8,�k�k��,20.6,80.6,0,0,0,0,0,0,994.1,1007.6
2023-06-19T00:36:00+09:00,1.8,�k�k��,2.8,�k�k��,20.6,80.6,0,0,0,0,0,0,994.1,1007.6
2023-06-19T00:37:00+09:00,1.8,�k�k��,2.8,�k�k��,20.7,80.8,0,0,0,0,0,0,994.1,1007.6
2023-06-19T00:38:00+09:00,1.7,�k�k��,2.8,�k�k��,20.6,80.7,0,0,0,0,0,0,994.1,1007.6
2023-06-19T00:39:00+09:00,1.7,�k�k��,2.8,�k�k��,20.5,80.4,0,0,0,0,0,0,994.1,1007.6
2023-06-19T00:40:00+09:00,1.6,�k��,2.8,�k�k��,20.4,80.4,0,0,0,0,0,0,994.1,1007.6
2023-06-19T00:41:00+09:00,1.6,�k��,2.8,�k�k��,20.6,81,0,0,0,0,0,0,994.1,1007.6
2023-06-19T00:42:00+09:00,1.5,�k��,2.7,�k,20.5,81.1,0,0,0,0,0,0,994,1007.5
2023-06-19T00:43:00+09:00,1.5,�k��,2.7,�k,20.6,80.8,0,0,0,0,0,0,994,1007.5
2023-06-19T00:44:00+09:00,1.5,�k��,2.3,�k��,20.5,80.2,0,0,0,0,0,0,994,1007.5
2023-06-19T00:45:00+09:00,1.5,�k��,2.3,�k��,20.5,80.3,0,0,0,0,0,0,994,1007.5
2023-06-19T00:46:00+09:00,1.5,�k��,2.3,�k��,20.6,80.7,0,0,0,0,0,0,994,1007.5
2023-06-19T00:47:00+09:00,1.5,�k��,2.1,�k��,20.7,80.9,0,0,0,0,0,0,994,1007.5
2023-06-19T00:48:00+09:00,1.4,�k��,2.1,�k��,20.7,80.5,0,0,0,0,0,0,994,1007.5
2023-06-19T00:49:00+09:00,1.3,�k��,2.1,�k��,20.7,80.3,0,0,0,0,0,0,994,1007.5
2023-06-19T00:50:00+09:00,1.3,�k��,2.1,�k��,20.5,79.8,0,0,0,0,0,0,994,1007.5
2023-06-19T00:51:00+09:00,1.3,�k��,2.1,�k��,20.5,80.2,0,0,0,0,0,0,993.9,1007.4
2023-06-19T00:52:00+09:00,1.2,�k��,2.1,�k��,20.4,79.9,0,0,0,0,0,0,993.9,1007.4
2023-06-19T00:53:00+09:00,1.3,�k��,2.1,�k��,20.5,80.4,0,0,0,0,0,0,993.9,1007.4
2023-06-19T00:54:00+09:00,1.3,�k��,2.1,�k��,20.4,80.4,0,0,0,0,0,0,993.9,1007.4
2023-06-19T00:55:00+09:00,1.2,�k��,2,�k��,20.4,80.5,0,0,0,0,0,0,993.9,1007.4
2023-06-19T00:56:00+09:00,1.2,�k��,1.8,�k��,20.4,80.2,0,0,0,0,0,0,993.9,1007.4
2023-06-19T00:57:00+09:00,1.2,�k��,1.8,�k��,20.4,80.2,0,0,0,0,0,0,993.8,1007.3
2023-06-19T00:58:00+09:00,1.1,�k��,1.8,�k��,20.4,80.1,0,0,0,0,0,0,993.8,1007.3
2023-06-19T00:59:00+09:00,1.1,�k��,1.8,�k��,20.3,80.4,0,0,0,0,0,0,993.8,1007.3
2023-06-19T01:00:00+09:00,1.1,�k��,1.8,�k��,20.3,80.4,0,0,0,0,0,0,993.8,1007.3
2023-06-19T01:01:00+09:00,1.1,�k��,1.8,�k��,20.4,80.8,0,0,0,0,0,0,993.8,1007.3
2023-06-19T01:02:00+09:00,1.1,�k��,1.8,�k��,20.3,80.6,0,0,0,0,0,0,993.8,1007.3
2023-06-19T01:03:00+09:00,1,�k��,1.7,�k��,20.2,80.4,0,0,0,0,0,0,993.7,1007.2
2023-06-19T01:04:00+09:00,1,�k��,1.6,�k��,20.1,80.4,0,0,0,0,0,0,993.7,1007.2
2023-06-19T01:05:00+09:00,0.9,�k��,1.4,�k��,20.2,80.8,0,0,0,0,0,0,993.7,1007.2
2023-06-19T01:06:00+09:00,0.9,�k��,1.4,�k��,20.3,80.9,0,0,0,0,0,0,993.7,1007.2
2023-06-19T01:07:00+09:00,0.8,�k��,1.4,�k��,20.3,80.7,0,0,0,0,0,0,993.7,1007.2
2023-06-19T01:08:00+09:00,0.9,�k�k��,1.4,�k��,20.3,80.7,0,0,0,0,0,0,993.6,1007.1
2023-06-19T01:09:00+09:00,0.9,�k�k��,1.5,�k�k��,20.3,80.9,0,0,0,0,0,0,993.6,1007.1
2023-06-19T01:10:00+09:00,0.9,�k�k��,1.5,�k�k��,20.2,80.7,0,0,0,0,0,0,993.6,1007.1
2023-06-19T01:11:00+09:00,0.9,�k�k��,1.5,�k�k��,20.3,81.1,0,0,0,0,0,0,993.6,1007.1
2023-06-19T01:12:00+09:00,0.8,�k�k��,1.5,�k�k��,20.2,81.1,0,0,0,0,0,0,993.6,1007.1
2023-06-19T01:13:00+09:00,0.8,�k�k��,1.5,�k�k��,20.1,81,0,0,0,0,0,0,993.6,1007.1
2023-06-19T01:14:00+09:00,0.8,�k�k��,1.5,�k�k��,20.2,81.5,0,0,0,0,0,0,993.6,1007.1
2023-06-19T01:15:00+09:00,0.8,�k�k��,1.5,�k�k��,20.2,81.4,0,0,0,0,0,0,993.6,1007.1
2023-06-19T01:16:00+09:00,0.8,�k�k��,1.5,�k�k��,20.2,81.7,0,0,0,0,0,0,993.6,1007.1
2023-06-19T01:17:00+09:00,0.8,�k�k��,1.5,�k�k��,20.2,81.6,0,0,0,0,0,0,993.6,1007.1
2023-06-19T01:18:00+09:00,0.8,�k�k��,1.5,�k�k��,20.1,81.6,0,0,0,0,0,0,993.6,1007.1
2023-06-19T01:19:00+09:00,0.9,�k�k��,1.5,�k��,20.1,81.9,0,0,0,0,0,0,993.6,1007.1
2023-06-19T01:20:00+09:00,0.9,�k�k��,1.6,�k��,20,81.8,0,0,0,0,0,0,993.6,1007.1
2023-06-19T01:21:00+09:00,1,�k�k��,2,�k��,20,81.7,0,0,0,0,0,0,993.6,1007.1
2023-06-19T01:22:00+09:00,1,�k��,2,�k��,19.9,81.5,0,0,0,0,0,0,993.6,1007.1
2023-06-19T01:23:00+09:00,1,�k��,2,�k��,19.9,81.7,0,0,0,0,0,0,993.6,1007.1
2023-06-19T01:24:00+09:00,1.1,�k��,2,�k��,20,82.1,0,0,0,0,0,0,993.6,1007.1
2023-06-19T01:25:00+09:00,1.1,�k��,2,�k��,20.2,82.5,0,0,0,0,0,0,993.6,1007.1
2023-06-19T01:26:00+09:00,1.1,�k��,2,�k��,20.1,82,0,0,0,0,0,0,993.6,1007.1
2023-06-19T01:27:00+09:00,1.1,�k��,2,�k��,20,81.9,0,0,0,0,0,0,993.6,1007.1
2023-06-19T01:28:00+09:00,1,�k�k��,2,�k��,19.9,81.9,0,0,0,0,0,0,993.6,1007.1
2023-06-19T01:29:00+09:00,1,�k�k��,2,�k��,20,82.3,0,0,0,0,0,0,993.6,1007.1
2023-06-19T01:30:00+09:00,1,�k�k��,2.1,�k��,20,82.4,0,0,0,0,0,0,993.6,1007.1
2023-06-19T01:31:00+09:00,1.1,�k�k��,2.5,�k��,19.8,82.1,0,0,0,0,0,0,993.5,1007
2023-06-19T01:32:00+09:00,1.1,�k�k��,2.5,�k��,19.8,82.1,0,0,0,0,0,0,993.5,1007
2023-06-19T01:33:00+09:00,1.1,�k�k��,2.5,�k��,19.8,82.6,0,0,0,0,0,0,993.5,1007
2023-06-19T01:34:00+09:00,1.2,�k�k��,2.5,�k��,19.9,82.8,0,0,0,0,0,0,993.5,1007
2023-06-19T01:35:00+09:00,1.2,�k�k��,2.5,�k��,19.7,82.5,0,0,0,0,0,0,993.5,1007
2023-06-19T01:36:00+09:00,1.2,�k��,2.5,�k��,19.7,82.7,0,0,0,0,0,0,993.5,1007
2023-06-19T01:37:00+09:00,1.3,�k��,2.5,�k��,19.6,83,0,0,0,0,0,0,993.5,1007
2023-06-19T01:38:00+09:00,1.3,�k��,2.5,�k��,19.7,83.6,0,0,0,0,0,0,993.5,1007
2023-06-19T01:39:00+09:00,1.4,�k��,2.5,�k��,19.7,83.5,0,0,0,0,0,0,993.5,1007
2023-06-19T01:40:00+09:00,1.4,�k��,2.5,�k��,19.7,83.5,0,0,0,0,0,0,993.5,1007
2023-06-19T01:41:00+09:00,1.3,�k��,2.3,�k�k��,19.7,83.5,0,0,0,0,0,0,993.5,1007
2023-06-19T01:42:00+09:00,1.2,�k�k��,2.3,�k�k��,19.6,83.2,0,0,0,0,0,0,993.5,1007
2023-06-19T01:43:00+09:00,1.2,�k�k��,2.3,�k�k��,19.8,83.8,0,0,0,0,0,0,993.4,1006.9
2023-06-19T01:44:00+09:00,1.2,�k�k��,2.3,�k�k��,19.8,83.6,0,0,0,0,0,0,993.4,1006.9
2023-06-19T01:45:00+09:00,1.2,�k�k��,2.3,�k�k��,19.6,83.7,0,0,0,0,0,0,993.4,1006.9
2023-06-19T01:46:00+09:00,1.2,�k�k��,2.3,�k�k��,19.7,83.7,0,0,0,0,0,0,993.4,1006.9
2023-06-19T01:47:00+09:00,1.2,�k�k��,2.3,�k�k��,19.6,83.7,0,0,0,0,0,0,993.4,1006.9
2023-06-19T01:48:00+09:00,1.3,�k�k��,2.8,�k��,19.6,83.5,0,0,0,0,0,0,993.4,1006.9
2023-06-19T01:49:00+09:00,1.4,�k�k��,2.8,�k��,19.8,83.6,0,0,0,0,0,0,993.4,1006.9
2023-06-19T01:50:00+09:00,1.5,�k�k��,3.4,�k��,19.9,84,0,0,0,0,0,0,993.4,1006.9
2023-06-19T01:51:00+09:00,1.7,�k��,3.4,�k��,19.7,83.2,0,0,0,0,0,0,993.4,1006.9
2023-06-19T01:52:00+09:00,1.8,�k��,3.4,�k��,19.8,82.8,0,0,0,0,0,0,993.4,1006.9
2023-06-19T01:53:00+09:00,1.9,�k��,3.4,�k��,19.9,82.8,0,0,0,0,0,0,993.4,1006.9
2023-06-19T01:54:00+09:00,2.1,�k��,3.4,�k��,19.8,82.6,0,0,0,0,0,0,993.4,1006.9
2023-06-19T01:55:00+09:00,2.2,�k��,3.4,�k��,19.7,82.1,0,0,0,0,0,0,993.4,1006.9
2023-06-19T01:56:00+09:00,2.2,�k��,3.4,�k��,19.7,82.1,0,0,0,0,0,0,993.4,1006.9
2023-06-19T01:57:00+09:00,2.2,�k��,3.4,�k��,19.9,82.3,0,0,0,0,0,0,993.4,1006.9
2023-06-19T01:58:00+09:00,2.2,�k��,3.4,�k��,19.8,82.3,0,0,0,0,0,0,993.4,1006.9
2023-06-19T01:59:00+09:00,2.1,�k��,3.4,�k��,19.8,82.3,0,0,0,0,0,0,993.4,1006.9
2023-06-19T02:00:00+09:00,2,�k��,3.2,�k��,19.7,82.3,0,0,0,0,0,0,993.4,1006.9
2023-06-19T02:01:00+09:00,1.9,�k��,3.2,�k��,19.6,82,0,0,0,0,0,0,993.4,1006.9
2023-06-19T02:02:00+09:00,1.8,�k��,3.2,�k��,19.5,82.3,0,0,0,0,0,0,993.4,1006.9
2023-06-19T02:03:00+09:00,1.6,�k��,3.1,�k��,19.5,82.8,0,0,0,0,0,0,993.3,1006.8
2023-06-19T02:04:00+09:00,1.5,�k��,2.9,�k��,19.4,82.9,0,0,0,0,0,0,993.3,1006.8
2023-06-19T02:05:00+09:00,1.4,�k��,2.5,�k��,19.4,82.9,0,0,0,0,0,0,993.3,1006.8
2023-06-19T02:06:00+09:00,1.3,�k��,2.5,�k��,19.5,83.6,0,0,0,0,0,0,993.3,1006.8
2023-06-19T02:07:00+09:00,1.2,�k��,2.4,�k��,19.4,83.6,0,0,0,0,0,0,993.3,1006.8
2023-06-19T02:08:00+09:00,1.1,�k��,2.3,�k��,19.4,83.7,0,0,0,0,0,0,993.3,1006.8
2023-06-19T02:09:00+09:00,1.1,�k��,2.3,�k��,19.6,84.1,0,0,0,0,0,0,993.3,1006.8
2023-06-19T02:10:00+09:00,1.1,�k��,2.3,�k��,19.7,83.9,0,0,0,0,0,0,993.2,1006.7
2023-06-19T02:11:00+09:00,1.1,�k��,2.3,�k��,19.6,83.2,0,0,0,0,0,0,993.2,1006.7
2023-06-19T02:12:00+09:00,1.1,�k��,2.3,�k��,19.5,82.7,0,0,0,0,0,0,993.2,1006.7
2023-06-19T02:13:00+09:00,1.1,�k��,2.3,�k��,19.7,83,0,0,0,0,0,0,993.2,1006.7
2023-06-19T02:14:00+09:00,1.2,�k��,2.3,�k��,19.7,82.7,0,0,0,0,0,0,993.2,1006.7
2023-06-19T02:15:00+09:00,1.2,�k��,2.3,�k��,19.6,82.6,0,0,0,0,0,0,993.2,1006.7
2023-06-19T02:16:00+09:00,1.3,�k��,2.3,�k��,19.6,82.3,0,0,0,0,0,0,993.2,1006.7
2023-06-19T02:17:00+09:00,1.3,�k��,2.3,�k��,19.7,82.6,0,0,0,0,0,0,993.2,1006.7
2023-06-19T02:18:00+09:00,1.3,�k��,2.3,�k��,19.6,82.7,0,0,0,0,0,0,993.2,1006.7
2023-06-19T02:19:00+09:00,1.3,�k��,2.3,�k��,19.6,82.6,0,0,0,0,0,0,993.2,1006.7
2023-06-19T02:20:00+09:00,1.3,�k��,2.3,�k��,19.7,82.7,0,0,0,0,0,0,993.2,1006.7
2023-06-19T02:21:00+09:00,1.4,�k��,2.3,�k��,19.5,82.4,0,0,0,0,0,0,993.2,1006.7
2023-06-19T02:22:00+09:00,1.4,�k��,2.3,�k��,19.7,82.6,0,0,0,0,0,0,993.2,1006.7
2023-06-19T02:23:00+09:00,1.4,�k��,2.3,�k��,19.6,82.6,0,0,0,0,0,0,993.1,1006.6
2023-06-19T02:24:00+09:00,1.4,�k��,2.2,�k��,19.5,82.2,0,0,0,0,0,0,993.2,1006.7
2023-06-19T02:25:00+09:00,1.4,�k��,2.2,�k��,19.5,82.2,0,0,0,0,0,0,993.2,1006.7
2023-06-19T02:26:00+09:00,1.5,�k��,2.2,�k��,19.5,82.1,0,0,0,0,0,0,993.2,1006.7
2023-06-19T02:27:00+09:00,1.6,�k��,2.2,�k��,19.5,82.1,0,0,0,0,0,0,993.1,1006.6
2023-06-19T02:28:00+09:00,1.5,�k��,2.1,�k��,19.5,82.1,0,0,0,0,0,0,993.1,1006.6
2023-06-19T02:29:00+09:00,1.5,�k��,2.1,�k��,19.7,82.6,0,0,0,0,0,0,993.1,1006.6
2023-06-19T02:30:00+09:00,1.5,�k��,2.1,�k��,19.6,82.3,0,0,0,0,0,0,993.2,1006.7
2023-06-19T02:31:00+09:00,1.5,�k��,2.1,�k��,19.6,82.1,0,0,0,0,0,0,993.2,1006.7
2023-06-19T02:32:00+09:00,1.5,�k��,2.1,�k��,19.5,82.1,0,0,0,0,0,0,993.2,1006.7
2023-06-19T02:33:00+09:00,1.5,�k��,2.1,�k��,19.3,81.8,0,0,0,0,0,0,993.2,1006.7
2023-06-19T02:34:00+09:00,1.5,�k��,2.4,�k��,19.2,82.3,0,0,0,0,0,0,993.2,1006.7
2023-06-19T02:35:00+09:00,1.5,�k�k��,2.4,�k��,19.5,83.2,0,0,0,0,0,0,993.2,1006.7
2023-06-19T02:36:00+09:00,1.5,�k�k��,2.4,�k��,19.5,83.1,0,0,0,0,0,0,993.2,1006.7
2023-06-19T02:37:00+09:00,1.6,�k�k��,2.5,�k�k��,19.4,83.1,0,0,0,0,0,0,993.2,1006.7
2023-06-19T02:38:00+09:00,1.6,�k�k��,2.5,�k�k��,19.3,83.1,0,0,0,0,0,0,993.2,1006.7
2023-06-19T02:39:00+09:00,1.7,�k�k��,2.5,�k�k��,19.1,82.9,0,0,0,0,0,0,993.2,1006.7
2023-06-19T02:40:00+09:00,1.6,�k�k��,2.5,�k�k��,19.2,83.1,0,0,0,0,0,0,993.1,1006.6
2023-06-19T02:41:00+09:00,1.6,�k�k��,2.5,�k�k��,19.3,83.7,0,0,0,0,0,0,993.2,1006.7
2023-06-19T02:42:00+09:00,1.6,�k�k��,2.5,�k�k��,19.3,84.1,0,0,0,0,0,0,993.1,1006.6
2023-06-19T02:43:00+09:00,1.6,�k�k��,2.5,�k�k��,19.3,84.1,0,0,0,0,0,0,993.1,1006.6
2023-06-19T02:44:00+09:00,1.6,�k�k��,2.5,�k�k��,19.3,84.4,0,0,0,0,0,0,993.2,1006.7
2023-06-19T02:45:00+09:00,1.5,�k�k��,2.5,�k�k��,19.3,84,0,0,0,0,0,0,993.2,1006.7
2023-06-19T02:46:00+09:00,1.5,�k�k��,2.5,�k�k��,19.4,83.8,0,0,0,0,0,0,993.2,1006.7
2023-06-19T02:47:00+09:00,1.3,�k�k��,2.3,�k�k��,19.3,83.6,0,0,0,0,0,0,993.2,1006.7
2023-06-19T02:48:00+09:00,1.2,�k�k��,2.2,�k,19.3,83.6,0,0,0,0,0,0,993.2,1006.7
2023-06-19T02:49:00+09:00,1,�k�k��,2.2,�k,19.3,83.5,0,0,0,0,0,0,993.2,1006.7
2023-06-19T02:50:00+09:00,0.9,�k�k��,2.1,�k��,19.1,83.3,0,0,0,0,0,0,993.2,1006.7
2023-06-19T02:51:00+09:00,0.9,�k,2.1,�k��,19,83.6,0,0,0,0,0,0,993.2,1006.7
2023-06-19T02:52:00+09:00,0.8,�k,2.1,�k��,19.1,84.1,0,0,0,0,0,0,993.2,1006.7
2023-06-19T02:53:00+09:00,0.7,�k�k��,2.1,�k��,19.3,84.8,0,0,0,0,0,0,993.2,1006.7
2023-06-19T02:54:00+09:00,0.6,�k�k��,2,�k��,19.1,84.7,0,0,0,0,0,0,993.2,1006.7
2023-06-19T02:55:00+09:00,0.6,�k�k��,1.6,�k�k��,19.1,84.3,0,0,0,0,0,0,993.2,1006.7
2023-06-19T02:56:00+09:00,0.6,�k��,1.1,�k��,19,84.4,0,0,0,0,0,0,993.2,1006.7
2023-06-19T02:57:00+09:00,0.6,�k��,1.1,�k��,19,84.6,0,0,0,0,0,0,993.2,1006.7
2023-06-19T02:58:00+09:00,0.6,�k��,1.1,�k��,19.1,85.1,0,0,0,0,0,0,993.2,1006.7
2023-06-19T02:59:00+09:00,0.6,�k��,1.1,�k��,18.9,85,0,0,0,0,0,0,993.3,1006.8
2023-06-19T03:00:00+09:00,0.7,�k��,1.1,�k��,18.9,85.3,0,0,0,0,0,0,993.3,1006.8
2023-06-19T03:01:00+09:00,0.7,�k��,1.1,�k��,19,85.8,0,0,0,0,0,0,993.2,1006.7
2023-06-19T03:02:00+09:00,0.7,�k��,1.1,�k��,18.9,85.6,0,0,0,0,0,0,993.2,1006.7
2023-06-19T03:03:00+09:00,0.7,�k��,1.1,�k��,19,85.9,0,0,0,0,0,0,993.2,1006.7
2023-06-19T03:04:00+09:00,0.7,�k��,1.1,�k��,18.9,86,0,0,0,0,0,0,993.2,1006.7
2023-06-19T03:05:00+09:00,0.6,�k��,1.1,�k��,18.9,85.9,0,0,0,0,0,0,993.2,1006.7
2023-06-19T03:06:00+09:00,0.6,�k��,1.1,�k��,18.7,85.5,0,0,0,0,0,0,993.1,1006.6
2023-06-19T03:07:00+09:00,0.6,�k��,1.1,�k��,18.7,85.8,0,0,0,0,0,0,993.2,1006.8
2023-06-19T03:08:00+09:00,0.6,�k��,1.1,�k��,18.9,86.3,0,0,0,0,0,0,993.2,1006.7
2023-06-19T03:09:00+09:00,0.6,���k��,1.1,�k��,18.8,86.6,0,0,0,0,0,0,993.2,1006.7
2023-06-19T03:10:00+09:00,0.7,���k��,1.1,�k��,18.8,86.1,0,0,0,0,0,0,993.1,1006.6
2023-06-19T03:11:00+09:00,0.7,���k��,1.2,��,18.8,86.3,0,0,0,0,0,0,993.1,1006.6
2023-06-19T03:12:00+09:00,0.6,���k��,1.2,��,18.8,86.1,0,0,0,0,0,0,993.1,1006.6
2023-06-19T03:13:00+09:00,0.7,���k��,1.2,��,18.8,86,0,0,0,0,0,0,993.1,1006.6
2023-06-19T03:14:00+09:00,0.7,���k��,1.4,�k��,18.8,86,0,0,0,0,0,0,993.1,1006.6
2023-06-19T03:15:00+09:00,0.8,���k��,1.4,�k��,18.9,85.8,0,0,0,0,0,0,993.1,1006.6
2023-06-19T03:16:00+09:00,0.9,���k��,1.7,���k��,19,85.8,0,0,0,0,0,0,993.1,1006.6
2023-06-19T03:17:00+09:00,1,���k��,1.7,���k��,18.7,85.7,0,0,0,0,0,0,993.1,1006.6
2023-06-19T03:18:00+09:00,1,���k��,2.1,���k��,18.5,85.5,0,0,0,0,0,0,993.1,1006.7
2023-06-19T03:19:00+09:00,1.1,���k��,2.2,��,18.5,86.4,0,0,0,0,0,0,993.1,1006.7
2023-06-19T03:20:00+09:00,1.2,���k��,2.2,��,18.3,87.3,0,0,0,0,0,0,993.1,1006.7
2023-06-19T03:21:00+09:00,1.3,���k��,2.4,��,18.1,87.7,0,0,0,0,0,0,993.1,1006.7
2023-06-19T03:22:00+09:00,1.4,���k��,2.5,��,17.9,88.6,0,0,0,0,0,0,993.1,1006.7
2023-06-19T03:23:00+09:00,1.5,���k��,2.5,��,17.8,89,0,0,0,0,0,0,993.1,1006.7
2023-06-19T03:24:00+09:00,1.6,��,2.5,��,17.9,90.2,0,0,0,0,0,0,993.1,1006.7
2023-06-19T03:25:00+09:00,1.7,��,2.5,��,18,91.5,0,0,0,0,0,0,993.1,1006.7
2023-06-19T03:26:00+09:00,1.7,��,2.5,��,17.8,91.4,0,0,0,0,0,0,993.1,1006.7
2023-06-19T03:27:00+09:00,1.7,��,2.5,��,17.8,91.3,0,0,0,0,0,0,993.1,1006.7
2023-06-19T03:28:00+09:00,1.8,��,2.5,��,17.9,91.9,0,0,0,0,0,0,993.1,1006.7
2023-06-19T03:29:00+09:00,1.8,��,2.5,��,18,92.4,0,0,0,0,0,0,993.1,1006.7
2023-06-19T03:30:00+09:00,1.8,��,2.5,��,18.1,92.6,0,0,0,0,0,0,993.1,1006.7
2023-06-19T03:31:00+09:00,1.7,��,2.5,��,18,92.4,0,0,0,0,0,0,993.1,1006.7
2023-06-19T03:32:00+09:00,1.6,��,2.5,��,17.9,92.1,0,0,0,0,0,0,993.1,1006.7
2023-06-19T03:33:00+09:00,1.5,��,2.4,��,17.8,91.5,0,0,0,0,0,0,993.1,1006.7
2023-06-19T03:34:00+09:00,1.4,��,2.4,��,17.7,91.6,0,0,0,0,0,0,993.1,1006.7
2023-06-19T03:35:00+09:00,1.2,��,2.3,��,17.8,91.9,0,0,0,0,0,0,993.1,1006.7
2023-06-19T03:36:00+09:00,1.1,��,2.2,��,18,92.6,0,0,0,0,0,0,993.2,1006.8
2023-06-19T03:37:00+09:00,1.1,��,2.1,���k��,18.3,93.2,0,0,0,0,0,0,993.2,1006.8
2023-06-19T03:38:00+09:00,1.1,��,2.3,��,18.3,92.9,0,0,0,0,0,0,993.2,1006.8
2023-06-19T03:39:00+09:00,1.1,��,2.3,��,18.2,91.9,0,0,0,0,0,0,993.2,1006.8
2023-06-19T03:40:00+09:00,1.1,��,2.3,��,18,91.4,0,0,0,0,0,0,993.2,1006.8
2023-06-19T03:41:00+09:00,1.1,��,2.3,��,18.1,91.1,0,0,0,0,0,0,993.2,1006.8
2023-06-19T03:42:00+09:00,1.1,���k��,2.3,��,18.3,91.5,0,0,0,0,0,0,993.1,1006.7
2023-06-19T03:43:00+09:00,1.2,���k��,2.3,��,18.3,91.6,0,0,0,0,0,0,993.1,1006.7
2023-06-19T03:44:00+09:00,1.3,���k��,2.3,��,18.4,91.3,0,0,0,0,0,0,993.1,1006.7
2023-06-19T03:45:00+09:00,1.4,���k��,2.3,��,18.5,91.2,0,0,0,0,0,0,993.1,1006.7
2023-06-19T03:46:00+09:00,1.4,���k��,2.3,��,18.3,90.8,0,0,0,0,0,0,993.2,1006.8
2023-06-19T03:47:00+09:00,1.4,���k��,2.3,��,18.2,90.1,0,0,0,0,0,0,993.1,1006.7
2023-06-19T03:48:00+09:00,1.2,���k��,2.2,��,18.1,89.8,0,0,0,0,0,0,993.1,1006.7
2023-06-19T03:49:00+09:00,1.1,���k��,2,��,18,89.7,0,0,0,0,0,0,993.1,1006.7
2023-06-19T03:50:00+09:00,1,�k��,1.8,��,18.1,90.1,0,0,0,0,0,0,993.1,1006.7
2023-06-19T03:51:00+09:00,0.9,�k��,1.5,���k��,18.2,90.3,0,0,0,0,0,0,993.1,1006.7
2023-06-19T03:52:00+09:00,0.8,�k��,1.5,���k��,18.2,90.3,0,0,0,0,0,0,993.2,1006.8
2023-06-19T03:53:00+09:00,0.7,�k��,1.5,���k��,18.2,89.6,0,0,0,0,0,0,993.1,1006.7
2023-06-19T03:54:00+09:00,0.6,�k��,1.5,���k��,18.2,89.6,0,0,0,0,0,0,993.2,1006.8
2023-06-19T03:55:00+09:00,0.6,�k��,1.5,���k��,18.1,89.5,0,0,0,0,0,0,993.2,1006.8
2023-06-19T03:56:00+09:00,0.5,�k��,1.5,���k��,18.2,89.6,0,0,0,0,0,0,993.2,1006.8
2023-06-19T03:57:00+09:00,0.4,�k��,1.2,���쐼,18.1,89.3,0,0,0,0,0,0,993.1,1006.7
2023-06-19T03:58:00+09:00,0.5,�k�k��,1.2,���쐼,18.2,89.1,0,0,0,0,0,0,993.1,1006.7
2023-06-19T03:59:00+09:00,0.5,�k�k��,1.4,�k,18.2,89.2,0,0,0,0,0,0,993.1,1006.7
2023-06-19T04:00:00+09:00,0.5,�k�k��,1.4,�k,18.2,89,0,0,0,0,0,0,993.1,1006.7
2023-06-19T04:01:00+09:00,0.6,�k�k��,1.4,�k,18.2,88.7,0,0,0,0,0,0,993.2,1006.8
2023-06-19T04:02:00+09:00,0.6,�k�k��,1.4,�k,18.3,88.5,0,0,0,0,0,0,993.2,1006.8
2023-06-19T04:03:00+09:00,0.6,�k,1.4,�k,18.1,87.8,0,0,0,0,0,0,993.2,1006.8
2023-06-19T04:04:00+09:00,0.7,�k,1.4,�k,18.4,88.1,0,0,0,0,0,0,993.2,1006.8
2023-06-19T04:05:00+09:00,0.7,�k,1.4,�k,18.5,88.1,0,0,0,0,0,0,993.2,1006.8
2023-06-19T04:06:00+09:00,0.7,�k,1.4,�k,18.4,87.7,0,0,0,0,0,0,993.2,1006.8
2023-06-19T04:07:00+09:00,0.7,�k,1.4,�k,18.5,87.4,0,0,0,0,0,0,993.2,1006.8
2023-06-19T04:08:00+09:00,0.7,�k,1.4,�k,18.4,87.2,0,0,0,0,0,0,993.2,1006.8
2023-06-19T04:09:00+09:00,0.7,�k,1.4,�k,18.4,87,0,0,0,0,0,0,993.2,1006.8
2023-06-19T04:10:00+09:00,0.7,�k,1.4,�k,18.3,86.6,0,0,0,0,0,0,993.2,1006.8
2023-06-19T04:11:00+09:00,0.7,�k,1.4,�k,18.3,86.8,0,0,0,0,0,0,993.2,1006.8
2023-06-19T04:12:00+09:00,0.7,�k�k��,1.4,�k,18.2,86.8,0,0,0,0,0,0,993.2,1006.8
2023-06-19T04:13:00+09:00,0.8,�k�k��,1.8,���k��,18.2,86.9,0,0,0,0,0,0,993.2,1006.8
2023-06-19T04:14:00+09:00,0.8,�k�k��,1.8,���k��,18.2,87.4,0,0,0,0,0,0,993.2,1006.8
2023-06-19T04:15:00+09:00,0.9,�k��,2,�k��,18.2,87.2,0,0,0,0,0,0,993.2,1006.8
2023-06-19T04:16:00+09:00,1,�k��,2,�k��,18.3,87.5,0,0,0,0,0,0,993.2,1006.8
2023-06-19T04:17:00+09:00,1,�k��,2,�k��,18.3,87.6,0,0,0,0,0,0,993.2,1006.8
2023-06-19T04:18:00+09:00,1.1,�k��,2,�k��,18,87.3,0,0,0,0,0,0,993.3,1006.9
2023-06-19T04:19:00+09:00,1.1,�k��,2,�k��,17.9,87.4,0,0,0,0,0,0,993.3,1006.9
2023-06-19T04:20:00+09:00,1.1,�k��,2,�k��,17.9,87.9,0,0,0,0,0,0,993.3,1006.9
2023-06-19T04:21:00+09:00,1.1,�k��,2,�k��,18.1,88.9,0,0,0,0,0,0,993.3,1006.9
2023-06-19T04:22:00+09:00,1.1,�k��,2,�k��,18,89.2,0,0,0,0,0,0,993.3,1006.9
2023-06-19T04:23:00+09:00,1.1,�k��,2,�k��,18,89.2,0,0,0,0,0,0,993.2,1006.8
2023-06-19T04:24:00+09:00,1,�k��,2,�k��,17.9,89.4,0,0,0,0,0,0,993.2,1006.8
2023-06-19T04:25:00+09:00,0.9,�k��,1.8,�k��,17.8,89.4,0,0,0,0,0,0,993.2,1006.8
2023-06-19T04:26:00+09:00,0.8,�k��,1.8,�k��,17.8,89.8,0,0,0,0,0,0,993.2,1006.8
2023-06-19T04:27:00+09:00,0.7,���k��,1.8,�k��,17.7,89.9,0,0,0,0,0,0,993.2,1006.8
2023-06-19T04:28:00+09:00,0.7,�k��,1.7,���k��,17.8,90.4,0,0,0,0,0,0,993.2,1006.8
2023-06-19T04:29:00+09:00,0.6,�k��,1.6,���k��,17.7,90.4,0,0,0,0,0,0,993.2,1006.8
2023-06-19T04:30:00+09:00,0.6,�k��,1.7,�k�k��,17.7,90.8,0,0,0,0,0,0,993.2,1006.8
2023-06-19T04:31:00+09:00,0.6,�k��,1.7,�k�k��,17.8,90.9,0,0,0,0,0,0,993.2,1006.8
2023-06-19T04:32:00+09:00,0.6,�k��,1.7,�k�k��,18,91.3,0,0,0,0,0,0,993.3,1006.9
2023-06-19T04:33:00+09:00,0.6,�k�k��,1.7,�k�k��,18,91,0,0,0,0,0,0,993.2,1006.8
2023-06-19T04:34:00+09:00,0.6,�k�k��,1.7,�k�k��,17.9,90.4,0,0,0,0,0,0,993.2,1006.8
2023-06-19T04:35:00+09:00,0.6,�k�k��,1.7,�k�k��,17.9,90.2,0,0,0,0,0,0,993.2,1006.8
2023-06-19T04:36:00+09:00,0.7,�k�k��,1.7,�k�k��,17.8,89.9,0,0,0,0,0,0,993.2,1006.8
2023-06-19T04:37:00+09:00,0.8,�k�k��,1.7,�k�k��,17.9,90,0,0,0,0,0,0,993.2,1006.8
2023-06-19T04:38:00+09:00,0.8,�k��,1.7,�k�k��,17.9,89.9,0,0,0,0,0,0,993.2,1006.8
2023-06-19T04:39:00+09:00,0.8,�k��,1.7,�k�k��,17.8,89.6,0,0,0,0,0,0,993.2,1006.8
2023-06-19T04:40:00+09:00,0.8,�k��,1.5,�k��,17.9,89.7,0,0,0,0,0,0,993.2,1006.8
2023-06-19T04:41:00+09:00,0.9,�k��,1.5,�k��,17.9,89.9,0,0,0,0,0,0,993.2,1006.8
2023-06-19T04:42:00+09:00,0.9,�k��,1.8,��,18,90,0,0,0,0,0,0,993.3,1006.9
2023-06-19T04:43:00+09:00,1,�k��,1.8,��,18,90,0,0,0,0,0,0,993.3,1006.9
2023-06-19T04:44:00+09:00,1.1,�k��,1.9,���k��,17.9,89.4,0,0,0,0,0,0,993.3,1006.9
2023-06-19T04:45:00+09:00,1.1,�k��,1.9,���k��,17.9,89.2,0,0,0,0,0,0,993.3,1006.9
2023-06-19T04:46:00+09:00,1.2,�k��,1.9,���k��,17.7,89.3,0,0,0,0,0,0,993.3,1006.9
2023-06-19T04:47:00+09:00,1.2,���k��,1.9,���k��,17.8,89.3,0,0,0,0,0,0,993.3,1006.9
2023-06-19T04:48:00+09:00,1.3,���k��,1.9,���k��,17.7,89.6,0,0,0,0,0,0,993.3,1006.9
2023-06-19T04:49:00+09:00,1.4,���k��,1.9,���k��,17.7,89.7,0,0,0,0,0,0,993.4,1007
2023-06-19T04:50:00+09:00,1.5,���k��,2.3,�k��,17.6,89.8,0,0,0,0,0,0,993.4,1007
2023-06-19T04:51:00+09:00,1.5,���k��,2.3,�k��,17.8,90.4,0,0,0,0,0,0,993.4,1007
2023-06-19T04:52:00+09:00,1.5,���k��,2.3,�k��,17.7,90.2,0,0,0,0,0,0,993.4,1007
2023-06-19T04:53:00+09:00,1.5,���k��,2.3,�k��,17.8,90.5,0,0,0,0,0,0,993.4,1007
2023-06-19T04:54:00+09:00,1.4,���k��,2.3,�k��,17.8,90.5,0,0,0,0,0,0,993.4,1007
2023-06-19T04:55:00+09:00,1.4,���k��,2.3,�k��,17.8,90.4,0,0,0,0,0,0,993.4,1007
2023-06-19T04:56:00+09:00,1.3,���k��,2.3,�k��,17.8,90.3,0,0,0,0,0,0,993.4,1007
2023-06-19T04:57:00+09:00,1.3,���k��,2.3,�k��,17.8,90.4,0,0,0,0,0,0,993.4,1007
2023-06-19T04:58:00+09:00,1.2,���k��,2.3,�k��,17.8,90.2,0,0,0,0,0,0,993.4,1007
2023-06-19T04:59:00+09:00,1.2,�k��,2.3,�k��,17.9,90.3,0,0,0,0,0.01,0,993.4,1007
2023-06-19T05:00:00+09:00,1,�k��,2,���k��,17.7,90.3,0,0,0,0,0.01,0,993.4,1007
2023-06-19T05:01:00+09:00,0.9,�k��,2,���k��,17.6,90,0,0,0,0,0.01,0,993.4,1007